Regional Weather Roundup
Issued by NWS

Home | Current Version | Previous Version | Graphics & Text | Print | Product List | Glossary On
Versions: 1 2 3 4 5 6 7 8 9 10 11 12 13 14 15 16 17 18 19 20 21 22 23 24 25 26 27 28 29 30 31 32 33 34 35 36 37 38 39 40 41 42 43 44 45 46 47 48 49 50
000
ASUS43 KLMK 210810
RWRKY
KENTUCKY REGIONAL WEATHER ROUNDUP
NATIONAL WEATHER SERVICE LOUISVILLE KY
400 AM EDT THU AUG 21 2014

NOTE "FAIR" INDICATES FEW OR NO CLOUDS BELOW 12,000 FEET
WITH NO SIGNIFICANT WEATHER AND/OR OBSTRUCTIONS TO VISIBILITY.

KYZ001>023-026-027-061>063-070>075-210900-
WESTERN AND SOUTH CENTRAL KENTUCKY

CITY           SKY/WX    TMP DP  RH WIND       PRES   REMARKS
PADUCAH        MOCLDY    79  73  82 SW5       30.01F
HENDERSON      CLOUDY    73  68  83 N3        30.05R
OWENSBORO      CLOUDY    73  69  87 CALM      30.06R
HOPKINSVILLE   PTCLDY    71  71 100 S5        30.05F
BOWLING GREEN  CLOUDY    69  67  93 CALM      30.06F
GLASGOW        PTCLDY    68  68 100 SW3       30.06F
$$

KYZ024-025-028>034-038-045-046-053-210900-
NORTH CENTRAL KENTUCKY

CITY           SKY/WX    TMP DP  RH WIND       PRES   REMARKS
LOUISVILLE/SDF CLOUDY    73  69  87 SW8       30.03R
LOUISVILLE/LOU PTCLDY    72  68  87 S5        30.04R
FORT KNOX      MOCLDY    70  70 100 SW6       30.04R
$$

KYZ035>037-039>044-047>052-055>060-089>105-210900-
NORTHEAST KENTUCKY

CITY           SKY/WX    TMP DP  RH WIND       PRES   REMARKS
LEXINGTON      MOCLDY    69  66  90 S5        30.06F
COVINGTON      MOCLDY    69  67  93 CALM      30.04S FOG
FRANKFORT      PTCLDY    68  67  96 S6        30.04F
$$

KYZ054-064>069-076>088-106>120-210900-
SOUTHEAST KENTUCKY

CITY           SKY/WX    TMP DP  RH WIND       PRES   REMARKS
JACKSON        PTCLDY    67  64  90 CALM      30.09S
LONDON         MOCLDY    68  64  87 SW3       30.10F
SOMERSET       MOCLDY    66  66 100 CALM      30.10S
MIDDLESBORO    MOCLDY    64  64 100 CALM      30.12S
MONTICELLO     MOSUNNY   67  66  96 CALM      30.10S
$$



USA.gov is the U.S. government's official web portal to all federal, state and local government web resources and services.